Printer-friendly version

IAU Minor Planet Center

Minor Planet Center

MPEC 2000-Q11: 1996 RX33

The following Minor Planet Electronic Circular may be linked-to from your own Web pages, but must not otherwise be redistributed electronically.


Read MPEC 2000-Q10 Read MPEC 2000-Q12


M.P.E.C. 2000-Q11                                Issued 2000 Aug. 19, 22:58 UT

     The Minor Planet Electronic Circulars contain information on unusual
         minor planets and routine data on comets.  They are published
   on behalf of Commission 20 of the International Astronomical Union by the
          Minor Planet Center, Smithsonian Astrophysical Observatory,
                          Cambridge, MA 02138, U.S.A.

             Prepared using the Tamkin Foundation Computer Network

             BMARSDEN@CFA.HARVARD.EDU or GWILLIAMS@CFA.HARVARD.EDU
          URL http://cfa-www.harvard.edu/iau/mpc.html  ISSN 1523-6714

                                   1996 RX33

Observations:
     J96R33X* C1996 09 08.27012 23 12 23.73 -08 52 17.8          22.2 V      691
     J96R33X  C1996 09 08.29122 23 12 23.51 -08 52 19.9          22.1 V      691
     J96R33X  C1996 09 08.31322 23 12 23.31 -08 52 20.9          22.5 V      691
     J96R33X HC1996 09 17.23908 23 11 03.98 -09 01 41.4          21.7 V      691
     J96R33X HC1996 09 17.26449 23 11 03.82 -09 01 43.2          21.9 V      691
     J96R33X HC1996 09 17.29676 23 11 03.52 -09 01 44.7          22.4 V      691
     J96R33X HC1996 09 21.30984 23 10 28.46 -09 05 44.5          21.5 V      691
     J96R33X HC1996 09 21.33110 23 10 28.32 -09 05 46.0          22.0 V      691
     J96R33X HC1996 09 21.35224 23 10 28.12 -09 05 47.3          22.0 V      691

Observer details:
691 Steward Observatory, Kitt Peak.  Observers T. Gehrels, J. V. Scotti.
    Measurer A. E. Gleason.  0.9-m Spacewatch telescope.

Orbital elements:
1996 RX33
Eccentricity assumed
Epoch 1996 Sept. 14.0 TT = JDT 2450340.5                Marsden
M   0.04930              (2000.0)            P               Q
n   0.00845229     Peri.  200.51070     +0.96705764     +0.23700824
a  23.8682051      Node   145.35692     -0.20479722     +0.94108519
e   0.2035975      Incl.    9.40356     -0.15118736     +0.24121726
P 117              H    9.3           G   0.15
From 9 observations 1996 Sept. 8-21.

Brian G. Marsden             (C) Copyright 2000 MPC           M.P.E.C. 2000-Q11

Read MPEC 2000-Q10 Read MPEC 2000-Q12


Our Web policy. Index to the CBAT/MPC/ICQ pages.


Valid HTML 4.01!